Location: Unspecified
(0.0000°N, 0.0000°E)
Time: 01:29:54
(UTC+00:00)

Vanguard 1 Rocket - Pass Details

Date: 22 November 2019
Orbit: 650 x 4226 km, 34.3° (Epoch: 10 December)

Event Time Altitude Azimuth Distance (km) Brightness Sun altitude
Rises 15:21:00 0° 245° (WSW) 7,479 13.1 33.7°
Reaches altitude 10° 15:28:12 10° 230° (SW) 6,936 13.2 32.1°
Maximum altitude 15:45:36 22° 186° (S) 6,402 12.3 28.1°
Drops below altitude 10° 16:03:10 10° 141° (SE) 6,954 11.8 24.1°
Sets 16:10:29 0° 126° (SE) 7,495 11.8 22.4°
